Location: *
(44.6297°S, 44.9037°W)
Time: 07:30:33
(UTC+00:00)

Daily predictions for brighter satellites

Satellite Brightness Start Highest point End
(mag) Time Altitude Azimuth Time Altitude Azimuth Time Altitude Azimuth
ATLAS 3B R/B 3.4 19:50:03 10° WNW 19:56:02 43° SW 20:01:57 10° SSE
NOSS 3-2 (C) 3.3 19:51:26 10° SW 19:58:02 65° SE 20:03:21 10° NE
Cosmos-2242 3.4 19:55:00 10° S 19:58:57 38° ESE 20:02:50 10° NE
Cosmos 1606 Rocket 3.6 19:55:26 10° S 19:59:52 86° W 20:04:13 10° N
Okean 1 3.3 19:56:20 10° SSW 20:00:00 75° W 20:03:36 10° N
BREEZE-M DEB (TANK) 3.5 19:52:43 10° W 20:01:00 87° S 20:04:23 10° E
Cosmos 1844 4.0 19:55:43 10° SSW 20:01:08 44° ESE 20:06:33 10° NE
COSMO-SKYMED 1 3.1 20:02:45 10° NE 20:06:28 33° ESE 20:10:13 10° S
Cosmos 2098 Rocket 3.6 20:05:09 10° SSW 20:09:46 60° W 20:13:39 10° N
USA 238 DEB 4.4 20:04:06 10° SSW 20:10:04 30° SSE 20:15:31 10° E
SKYMED 2 3.6 20:05:43 10° NNE 20:10:07 83° ESE 20:14:33 10° SSW
USA 238 4.4 20:04:20 10° SSW 20:10:17 30° SSE 20:15:43 10° E
BREEZE-M DEB (TANK) 4.0 20:01:03 10° W 20:11:30 53° S 20:14:36 11° ESE
ISS -1.9 20:13:22 10° N 20:15:50 19° NE 20:18:09 11° E
Meteor 2-3 Rocket 4.4 20:10:21 10° NNW 20:16:03 60° WSW 20:21:46 10° S
Cosmos 2322 Rocket 2.9 20:11:08 10° NNE 20:16:11 34° ENE 20:21:17 10° SE
USA 307 1.7 20:17:16 10° NW 20:19:37 84° NE 20:22:25 14° SE
Cosmos 2219 4.2 20:14:32 10° SW 20:20:07 52° WNW 20:25:36 10° N
Cosmos 44 4.4 20:17:23 10° NNE 20:20:49 22° ENE 20:23:25 14° ESE
SL-4 R/B 1.9 20:16:58 10° SW 20:20:54 60° SSE 20:24:46 10° ENE
COBE Rocket 4.0 20:17:11 10° NE 20:21:41 48° ESE 20:26:21 10° S
Cosmos 1271 Rocket 2.3 20:18:17 10° S 20:21:46 85° E 20:25:10 10° N
IGS 5A 3.4 20:22:56 10° SSE 20:26:57 60° E 20:30:54 10° N
Cosmos 1484 Rocket 4.4 20:28:05 13° E 20:28:05 13° E 20:29:20 10° ENE
Meteor 1-26 Rocket 4.4 20:23:15 10° SSW 20:28:49 78° W 20:34:28 10° N
Cosmos 1626 Rocket 4.1 20:26:38 10° NNE 20:30:39 37° E 20:34:41 10° SSE
Aureole 2 4.3 20:27:43 10° SSW 20:31:05 83° WNW 20:34:23 10° NNE
Cosmos 1634 Rocket 4.4 20:25:58 10° S 20:31:49 40° ESE 20:37:37 10° NE
Cosmos 1842 2.8 20:28:56 10° S 20:32:05 53° E 20:35:12 10° NNE
Cosmos 2221 3.3 20:30:20 10° SSE 20:34:02 28° ESE 20:37:43 10° NE
Cosmos 836 Rocket 4.4 20:28:53 10° SSW 20:34:09 66° ESE 20:39:19 10° NNE
ATLAS 5 CENTAUR R/B 3.7 20:19:02 10° SW 20:37:12 86° NW 20:41:51 10° NE
Cosmos 1486 Rocket 4.2 20:32:53 10° N 20:37:58 50° ENE 20:42:52 11° SSE
Cosmos 2034 Rocket 4.0 20:32:28 10° S 20:38:58 79° E 20:45:21 10° NNE
Cosmos 1707 4.0 20:38:25 10° SSW 20:40:56 29° W 20:43:25 10° NNW
Cosmos 1980 Rocket 4.1 20:36:47 10° W 20:41:11 23° SW 20:45:38 10° S
Meteor 2-2 Rocket 4.5 20:35:55 10° SSW 20:41:39 76° W 20:47:25 10° N
Lacrosse 5 rocket 4.3 20:40:05 10° W 20:42:05 14° NW 20:44:06 10° NNW
ATLAS 5 CENTAUR R/B 3.8 20:40:33 10° SSW 20:44:27 17° SSE 20:46:18 15° SE
Meteor 2-12 Rocket 4.4 20:40:24 10° N 20:46:32 74° E 20:52:43 10° SSE
Cosmos 2058 Rocket 3.2 20:43:13 10° S 20:47:39 78° W 20:52:01 10° N
USA 234 4.0 20:44:28 14° SE 20:49:52 43° SSW 20:56:01 10° W
NOSS 3-4 (A) 4.4 20:41:57 10° NNW 20:50:38 59° ENE 20:57:24 17° SE
NOSS 3-4 (C) 4.4 20:42:45 10° NNW 20:51:24 58° ENE 20:58:04 17° SE
KORONAS-FOTON 4.3 20:48:29 10° SSW 20:51:52 53° W 20:55:12 10° N
Tsikada Rocket 4.0 20:47:09 10° N 20:53:32 71° E 21:00:01 10° SSE
Cosmos 1805 4.0 20:52:11 10° NNE 20:54:15 24° ENE 20:54:15 24° ENE
Cosmos 1812 Rocket 4.2 20:51:45 10° S 20:55:51 34° ESE 20:59:56 10° NE
Cosmos 2219 Rocket 2.6 20:52:33 10° N 20:57:50 42° ENE 21:00:53 23° SE
Cosmos 2360 Rocket 2.1 21:00:04 10° NNW 21:05:42 78° ENE 21:09:59 18° SSE
Cosmos 1354 Rocket 4.4 21:02:31 10° N 21:07:27 42° ENE 21:09:30 29° SE
SL-16 R/B 2.8 21:01:59 10° NW 21:07:34 56° WSW 21:13:07 10° SSE
ARIANE 5 R/B 4.0 21:10:11 20° ENE 21:10:11 20° ENE 21:12:45 10° NE
Cosmos 2333 Rocket 2.7 21:03:10 10° NW 21:08:52 62° WSW 21:14:16 12° SSE
Cosmos 1844 Rocket 3.6 21:05:52 10° SW 21:11:23 52° WNW 21:16:49 10° N
Cosmos 2208 Rocket 4.1 21:05:56 10° SSW 21:11:26 86° WNW 21:16:48 10° NNE
SMAP 3.1 21:08:51 19° SSE 21:12:08 59° E 21:16:45 10° N
Cosmos 773 Rocket 4.3 21:07:45 10° SSW 21:12:55 67° WNW 21:18:00 10° N
H-2A R/B 4.4 21:10:00 10° S 21:13:43 43° WSW 21:17:24 10° NW
CZ-4 R/B 4.1 21:09:07 10° S 21:13:47 67° WSW 21:18:24 10° NNW
Cosmos 990 Rocket 4.1 21:10:30 10° N 21:15:33 52° ENE 21:17:34 33° SE
Geosat FO 4.2 21:16:45 56° WSW 21:16:45 56° WSW 21:19:08 10° NW
Cosmos 2278 4.2 21:12:23 10° NW 21:17:58 59° WSW 21:22:51 14° SSE
Cosmos 1777 Rocket 4.0 21:13:41 10° NNW 21:18:55 82° WSW 21:22:54 18° SSE
Meteor 1-27 Rocket 3.9 21:16:08 10° S 21:21:58 52° ESE 21:27:36 10° NNE
BREEZE-M R/B 3.1 21:14:11 10° NW 21:22:33 65° NNE 21:23:42 44° E
USA 59 Rocket 1.8 21:13:14 10° SW 21:23:21 76° SE 21:31:21 10° NE
Cosmos 2279 Rocket 3.9 21:20:17 10° S 21:26:37 73° E 21:32:55 10° NNE
Gbstr 26 Del rocket 4.0 21:23:19 10° WSW 21:26:43 28° S 21:26:46 28° S
RESURS DK-1 2.8 21:25:43 10° N 21:28:52 44° NNE 21:28:52 44° NNE
Landsat 7 4.3 21:30:34 11° S 21:35:03 60° WSW 21:39:40 10° NNW
Meteor 1-10 Rocket 4.4 21:29:27 10° SSW 21:35:27 82° W 21:41:25 10° N
Cosmos 2151 3.7 21:32:54 10° NNW 21:36:59 52° WSW 21:40:03 17° S
Meteor 1-20 Rocket 4.5 21:33:42 10° NNW 21:39:25 70° WSW 21:45:06 10° S
Cosmos 2278 Rocket 4.0 21:38:18 10° S 21:39:54 16° S 21:39:54 16° S
Meteor 2-20 4.5 21:37:04 10° S 21:43:08 53° ESE 21:49:06 10° NNE
USA 307 4.3 21:44:13 10° WSW 21:45:53 22° SW 21:45:53 22° SW
ATLAS 3B R/B 4.4 21:44:43 10° SW 21:48:24 16° SSW 21:50:58 13° S
Aureole 1 Rocket 3.7 21:43:35 10° N 21:47:31 45° NNE 21:47:31 45° NNE
Meteor 1-25 Rocket 4.4 21:46:34 10° NNW 21:52:19 74° W 21:57:05 16° S
ISS -2.2 21:48:55 10° WNW 21:51:07 36° WNW 21:51:07 36° WNW
Meteor 2-4 Rocket 3.5 21:48:55 10° S 22:00:31 - NNE 21:54:11 71° ESE
SL-4 R/B 3.5 21:54:37 10° WSW 21:58:02 29° NW 21:58:35 27° NNW
Cosmos 2322 Rocket 3.3 21:54:47 10° NW 22:00:07 40° SW 22:03:21 22° S
Cosmos 1602 Rocket 4.5 21:55:56 10° NNW 22:00:13 47° WSW 22:01:49 32° SSW
Cosmos 1484 Rocket 4.3 22:01:38 30° WNW 22:01:38 30° WNW 22:03:45 10° NW
Cosmos 44 3.9 21:57:25 10° WNW 22:01:37 43° SW 22:01:44 43° SW
USA 238 DEB 3.5 21:55:02 10° SW 22:01:40 75° WNW 22:04:23 35° NNE
USA 238 3.5 21:55:15 10° SW 22:01:54 76° WNW 22:04:29 37° NNE
Cosmos 2142 Rocket 4.5 21:56:25 10° S 22:02:51 85° W 22:09:07 10° N
COSMOS 2428 4.0 22:02:56 10° N 22:05:41 28° NNE 22:05:41 28° NNE
SPOT 1/Viking Rocket 3.8 22:09:47 50° SSW 22:10:58 65° WSW 22:16:05 10° NNW
ASTEX 1 4.0 22:10:31 30° SSW 22:12:48 55° W 22:17:39 10° NNW
Cosmos 1943 Rocket 3.9 22:08:35 10° SSW 22:10:27 20° S 22:10:27 20° S
Nadezhda 4 Rocket 3.9 22:10:07 10° N 22:16:29 85° E 22:16:31 85° E
BREEZE M DEB (TANK) 4.2 22:16:03 10° WSW 22:20:55 63° S 22:22:25 56° SE
ATLAS 5 CENTAUR R/B 3.8 22:22:37 10° SSW 22:25:20 24° SSW 22:25:20 24° SSW
USA 234 4.4 22:31:48 30° S 22:31:53 30° S 22:37:28 10° WSW
Cosmos 2219 Rocket 3.6 22:36:47 10° WNW 22:41:51 33° SW 22:42:36 32° SW
ARIANE 5 R/B 4.3 22:50:28 27° NW 22:50:28 27° NW 22:52:59 10° NW
Cosmos 2360 Rocket 4.3 22:46:12 10° W 22:50:20 20° SW 22:51:45 19° SSW
USA 59 Rocket 3.1 23:03:35 10° SW 23:11:40 33° WNW 23:16:59 15° NNW
USA 184 3.8 23:10:33 10° SW 23:35:03 14° NE 23:39:18 10° NNE
